Regional Weather Roundup
Issued by NWS

Home | Current Version | Previous Version | Text Only | Print | Product List | Glossary Off
Versions: 1 2 3 4 5 6 7 8 9 10 11 12 13 14 15 16 17 18 19 20 21 22 23 24 25 26 27 28 29 30 31 32 33 34 35 36 37 38 39 40

000
ASUS45 KBOU 270307
RWRCO

WEATHER ROUNDUP FOR COLORADO
NATIONAL WEATHER SERVICE DENVER/BOULDER CO
800 PM MST FRI DEC 26 2014

NOTE: "FAIR" INDICATES FEW OR NO CLOUDS BELOW 12000 FEET WITH NO
SIGNIFICANT WEATHER AND/OR OBSTRUCTIONS TO VISIBILITY.

COZ001>005-013-030-031-270400-
...NORTHWEST COLORADO...

CITY           SKY/WX    TMP DP  RH WIND       PRES   REMARKS
CRAIG          LGT SNOW  14  10  84 SW8       30.02R FOG     WCI   3
HAYDEN         MOCLDY    12   9  85 W7        29.98R WCI   2
MEEKER         CLOUDY    14  10  84 W3        30.01R
MOUNT WERNER   NOT AVBL
STEAMBOAT SPGS CLOUDY    13   9  85 CALM      29.97R
WALDEN         CLOUDY     5   1  85 NW12      29.89R WCI -11
$$

COZ006>008-011-270400-
...WEST CENTRAL VALLEYS...

CITY           SKY/WX    TMP DP  RH WIND       PRES   REMARKS
GRAND JUNCTION CLOUDY    21  16  81 NE5       30.05R WCI  15
MONTROSE       CLOUDY    23  17  78 NW3       30.03R
EAGLE          LGT SNOW  19  12  73 W12       29.97R FOG     WCI   7
RIFLE          CLOUDY    20   9  62 NW8       30.03R WCI  10
DELTA          CLOUDY    28  19  68 SW3       30.01R
NUCLA          CLOUDY    23  16  74 W5        30.04R WCI  17
$$

COZ017>023-064>068-270400-
...SOUTHWEST COLORADO...

CITY           SKY/WX    TMP DP  RH WIND       PRES   REMARKS
DURANGO        PTCLDY    18  14  84 SW10      29.94R WCI   6
CORTEZ         CLOUDY    24  15  68 CALM      30.01R
PAGOSA SPRINGS LGT SNOW  20  19  94 SE3       29.93R
TELLURIDE      LGT SNOW  11   9  92 W10       29.90R WCI  -2
WOLF CREEK PAS CLOUDY     1   0  92 MISG      29.77R
$$

COZ009-010-012-014-032>034-037-058>063-270400-
...CENTRAL COLORADO...

CITY           SKY/WX    TMP DP  RH WIND       PRES   REMARKS
ASPEN          LGT SNOW  14   9  80 N7        29.90R WCI   4
BUENA VISTA    FLURRIES  -4  -8  86 CALM      29.90R
COPPER MTN     LGT SNOW   5   0  78 W14       29.73R WCI -12
BERTHOUD PASS  LGT SNOW  -4  -9  77 MISG      29.69R VSB 3/4
COTTONWOOD PAS LGT SNOW   9   3  78 CALM      29.81R
GUNNISON       PTCLDY     7   0  72 N5        29.92R WCI  -2
KREMMLING      CLOUDY    16   5  62 NW5       29.93R WCI   9
LEADVILLE      CLOUDY     1  -3  83 CALM      29.79R
MONARCH PASS   CLOUDY     3   0  85 W23       29.84R WCI -19
SALIDA         CLOUDY     7   2  79 W6        30.00R WCI  -3
SUNLIGHT       CLOUDY   N/A N/A N/A SW3       29.82R
WILKERSON PASS MOCLDY     0  -4  85 SW7       29.76R WCI -13
$$

COZ069>075-270400-
...SAN LUIS VALLEY/SANGRE DE CRISTO MOUNTAINS...

CITY           SKY/WX    TMP DP  RH WIND       PRES   REMARKS
ALAMOSA        CLOUDY    15  12  88 VRB3      29.89R
LA VETA PASS   NOT AVBL
SAGUACHE       MOCLDY     3   1  92 N5        29.90R WCI  -6
$$

COZ035-036-038>040-270400-
...NORTHERN COLORADO FRONT RANGE...

CITY           SKY/WX    TMP DP  RH WIND       PRES   REMARKS
DENVER INTL AP LGT SNOW  14  12  92 CALM      30.04R FOG
DMNS CITY PARK   N/A     13  11  92 NE1       30.05R
AURORA         FLURRIES  12  11  96 N2        30.04R
FRONT RANGE AP MIX PCPN  18  14  86 CALM      30.04R
ERIE MUNI ARPT LGT SNOW  16  14  93 CALM      30.07R
BOULDER MUN AP FLURRIES  18  16  93 CALM      30.05R
CENTENNIAL     FLURRIES  13  10  88 CALM      30.01R
BROOMFIELD     CLOUDY    12  12 100 CALM      30.04R
FORT COLLINS   CLOUDY    16  10  79 SE3       30.07R
LONGMONT       LGT SNOW  18  15  87 CALM      30.09R
$$

COZ041-046-047-076>085-087-088-270400-
...PIKES PEAK/PALMER DIVIDE AND SOUTHERN FOOTHILLS...

CITY           SKY/WX    TMP DP  RH WIND       PRES   REMARKS
COLO. SPRINGS  FLURRIES  17  13  84 SW9       29.99R WCI   6
A. F. ACADEMY  CLOUDY    13   6  71 N9        29.97R WCI   1
ELLICOTT       NOT AVBL
FALCON         CLOUDY    13   6  74 N9        29.96R WCI   0
FORT CARSON    CLOUDY    17  11  79 SE6       30.00R WCI   8
LIMON          MOCLDY     7   5  91 NW7       30.04R WCI  -5
MONUMENT HILL  FLURRIES   9   5  85 N5        29.94R WCI   0
TRINIDAD       CLOUDY    10   7  87 NW6       30.02R WCI   0
$$

COZ042>045-048>051-090-091-270400-
...NORTHEAST COLORADO...

CITY           SKY/WX    TMP DP  RH WIND       PRES   REMARKS
GREELEY ARPT   CLOUDY    14   7  73 CALM      30.07R
AKRON          CLOUDY    12  10  92 NW7       30.06R FOG     WCI   1
BURLINGTON     CLOUDY    13  10  88 NW7       30.08R FOG     WCI   3
WRAY           FLURRIES  19  16  88 NW8       30.11R WCI   9
STERLING       LGT SNOW  19  18  93 W3        30.09R
HOLYOKE        FLURRIES  21  18  86 NW7       30.10R WCI  13
FORT MORGAN    LGT SNOW  14  12  91 W3        30.09R
$$

COZ086-089-092>099-270400-
...SOUTHEAST COLORADO...

CITY           SKY/WX    TMP DP  RH WIND       PRES   REMARKS
PUEBLO         CLOUDY    20  15  81 SE7       30.06R WCI  11
LA JUNTA       MOCLDY    15  10  80 N3        30.11R
LAMAR          MOCLDY    19  16  88 NW5       30.10R WCI  12
SPRINGFIELD      N/A     20  17  88 N8        30.07R WCI  10
$$



USA.gov is the U.S. government's official web portal to all federal, state and local government web resources and services.